Time,TemperatureF,DewpointF,PressureIn,WindDirection,WindDirectionDegrees,WindSpeedMPH,WindSpeedGustMPH,Humidity,HourlyPrecipIn,Conditions,Clouds,dailyrainin,SoftwareType,DateUTC
2013-08-26 00:57:00,73.4,62.8,29.37,SE,135,0.0,0.0,69,0.00,,,0.00,WUHU21623XXSP,2013-08-26 05:57:00,
2013-08-26 01:57:00,72.5,62.3,29.37,ESE,113,0.0,0.0,70,0.00,,,0.00,WUHU21623XXSP,2013-08-26 06:57:00,
2013-08-26 02:57:00,71.8,62.1,29.36,SSE,158,0.0,0.0,71,0.00,,,0.00,WUHU21623XXSP,2013-08-26 07:57:00,
2013-08-26 03:57:00,71.2,61.9,29.37,South,180,0.0,0.0,72,0.00,,,0.00,WUHU21623XXSP,2013-08-26 08:57:00,
2013-08-26 04:57:00,70.3,61.4,29.37,SSE,158,0.0,0.0,73,0.00,,,0.00,WUHU21623XXSP,2013-08-26 09:57:00,
2013-08-26 05:21:00,70.2,61.4,29.37,SE,135,0.0,0.0,74,0.00,,,0.00,WUHU21623XXSP,2013-08-26 10:21:00,
2013-08-26 05:22:00,70.2,61.4,29.37,SE,135,0.0,0.0,74,0.00,,,0.00,WUHU21623XXSP,2013-08-26 10:22:00,
2013-08-26 05:27:00,70.2,61.4,29.37,SE,135,0.0,0.0,74,0.00,,,0.00,WUHU21623XXSP,2013-08-26 10:27:00,
2013-08-26 05:32:00,70.2,61.4,29.36,SE,135,3.8,3.8,74,0.00,,,0.00,WUHU21623XXSP,2013-08-26 10:32:00,
2013-08-26 05:37:00,70.0,61.2,29.37,SE,135,0.0,3.8,74,0.00,,,0.00,WUHU21623XXSP,2013-08-26 10:37:00,
2013-08-26 05:41:00,70.0,61.6,29.37,SE,135,0.0,0.0,75,0.00,,,0.00,WUHU21623XXSP,2013-08-26 10:41:00,
2013-08-26 05:46:00,70.0,61.2,29.37,SE,135,0.0,2.0,74,0.00,,,0.00,WUHU21623XXSP,2013-08-26 10:46:00,
2013-08-26 05:51:00,70.0,61.2,29.37,SE,135,0.0,2.0,74,0.00,,,0.00,WUHU21623XXSP,2013-08-26 10:51:00,
2013-08-26 05:56:00,70.0,61.2,29.37,SE,135,0.0,0.0,74,0.00,,,0.00,WUHU21623XXSP,2013-08-26 10:56:00,
2013-08-26 06:01:00,70.0,61.6,29.37,South,180,0.0,0.0,75,0.00,,,0.00,WUHU21623XXSP,2013-08-26 11:01:00,
2013-08-26 06:06:00,70.0,61.6,29.37,South,180,0.0,0.0,75,0.00,,,0.00,WUHU21623XXSP,2013-08-26 11:06:00,
2013-08-26 06:11:00,69.8,61.4,29.38,SSE,157,2.2,2.2,75,0.00,,,0.00,WUHU21623XXSP,2013-08-26 11:11:00,
2013-08-26 06:16:00,69.8,61.4,29.38,South,180,0.0,2.2,75,0.00,,,0.00,WUHU21623XXSP,2013-08-26 11:16:00,
2013-08-26 06:21:00,69.8,61.4,29.38,SSE,157,0.0,0.0,75,0.00,,,0.00,WUHU21623XXSP,2013-08-26 11:21:00,
2013-08-26 06:26:00,69.8,61.4,29.38,SSE,157,0.0,0.0,75,0.00,,,0.00,WUHU21623XXSP,2013-08-26 11:26:00,
2013-08-26 06:31:00,69.8,61.4,29.37,SSE,157,0.0,0.0,75,0.00,,,0.00,WUHU21623XXSP,2013-08-26 11:31:00,
2013-08-26 06:36:00,69.6,61.3,29.38,SE,135,0.0,0.0,75,0.00,,,0.00,WUHU21623XXSP,2013-08-26 11:36:00,
2013-08-26 06:41:00,69.6,61.3,29.38,SE,135,0.0,0.0,75,0.00,,,0.00,WUHU21623XXSP,2013-08-26 11:41:00,
2013-08-26 06:46:00,69.6,61.3,29.38,SE,135,0.0,0.0,75,0.00,,,0.00,WUHU21623XXSP,2013-08-26 11:46:00,
2013-08-26 06:51:00,69.8,61.4,29.38,SE,135,0.0,0.0,75,0.00,,,0.00,WUHU21623XXSP,2013-08-26 11:51:00,
2013-08-26 06:56:00,69.8,61.8,29.37,SSE,157,0.0,0.0,76,0.00,,,0.00,WUHU21623XXSP,2013-08-26 11:56:00,
2013-08-26 07:01:00,69.8,61.8,29.38,SSE,157,0.0,0.0,76,0.00,,,0.00,WUHU21623XXSP,2013-08-26 12:01:00,
2013-08-26 07:06:00,70.0,62.0,29.38,SSE,157,0.0,0.0,76,0.00,,,0.00,WUHU21623XXSP,2013-08-26 12:06:00,
2013-08-26 07:11:00,70.0,62.0,29.38,SE,135,0.0,0.0,76,0.00,,,0.00,WUHU21623XXSP,2013-08-26 12:11:00,
2013-08-26 07:16:00,70.0,62.0,29.38,SE,135,0.0,0.0,76,0.00,,,0.00,WUHU21623XXSP,2013-08-26 12:16:00,
2013-08-26 07:21:00,70.2,62.2,29.38,SSE,157,2.2,2.2,76,0.00,,,0.00,WUHU21623XXSP,2013-08-26 12:21:00,
2013-08-26 07:26:00,70.3,62.3,29.38,SSE,157,0.0,2.2,76,0.00,,,0.00,WUHU21623XXSP,2013-08-26 12:26:00,
2013-08-26 07:31:00,70.5,62.5,29.38,SSE,157,0.0,0.0,76,0.00,,,0.00,WUHU21623XXSP,2013-08-26 12:31:00,
2013-08-26 07:36:00,70.9,62.9,29.38,SSE,157,0.0,0.7,76,0.00,,,0.00,WUHU21623XXSP,2013-08-26 12:36:00,
2013-08-26 07:41:00,71.2,63.2,29.38,SSE,157,0.0,0.7,76,0.00,,,0.00,WUHU21623XXSP,2013-08-26 12:41:00,
2013-08-26 07:46:00,71.2,63.2,29.38,SSE,157,0.0,0.0,76,0.00,,,0.00,WUHU21623XXSP,2013-08-26 12:46:00,
2013-08-26 07:51:00,71.8,63.8,29.39,SSE,157,0.9,0.9,76,0.00,,,0.00,WUHU21623XXSP,2013-08-26 12:51:00,
2013-08-26 07:56:00,72.0,64.0,29.39,SE,135,0.0,0.9,76,0.00,,,0.00,WUHU21623XXSP,2013-08-26 12:56:00,
2013-08-26 08:01:00,72.1,64.1,29.39,SW,225,1.3,1.3,76,0.00,,,0.00,WUHU21623XXSP,2013-08-26 13:01:00,
2013-08-26 08:06:00,72.7,64.3,29.39,SE,135,0.0,1.3,75,0.00,,,0.00,WUHU21623XXSP,2013-08-26 13:06:00,
2013-08-26 08:11:00,73.0,64.7,29.39,SE,135,1.1,1.1,75,0.00,,,0.00,WUHU21623XXSP,2013-08-26 13:11:00,
2013-08-26 08:16:00,73.2,64.8,29.39,ESE,112,0.0,1.1,75,0.00,,,0.00,WUHU21623XXSP,2013-08-26 13:16:00,
2013-08-26 08:21:00,73.8,64.8,29.38,WSW,247,0.0,0.0,74,0.00,,,0.00,WUHU21623XXSP,2013-08-26 13:21:00,
2013-08-26 08:26:00,73.9,65.2,29.39,WSW,247,0.0,0.0,74,0.00,,,0.00,WUHU21623XXSP,2013-08-26 13:26:00,
2013-08-26 08:31:00,74.1,65.7,29.39,SSW,202,0.0,0.0,75,0.00,,,0.00,WUHU21623XXSP,2013-08-26 13:31:00,
2013-08-26 08:36:00,74.5,65.7,29.38,SSW,202,0.0,0.0,74,0.00,,,0.00,WUHU21623XXSP,2013-08-26 13:36:00,
2013-08-26 08:41:00,74.8,65.7,29.38,WSW,247,0.0,1.1,74,0.00,,,0.00,WUHU21623XXSP,2013-08-26 13:41:00,
2013-08-26 08:46:00,75.0,66.0,29.38,SW,225,0.0,1.1,74,0.00,,,0.00,WUHU21623XXSP,2013-08-26 13:46:00,
2013-08-26 08:51:00,75.4,66.2,29.38,WSW,247,0.9,0.9,74,0.00,,,0.00,WUHU21623XXSP,2013-08-26 13:51:00,
2013-08-26 08:56:00,75.6,66.1,29.38,WSW,247,2.2,2.2,73,0.00,,,0.00,WUHU21623XXSP,2013-08-26 13:56:00,
2013-08-26 09:01:00,75.7,66.5,29.38,SSW,202,1.3,2.2,73,0.00,,,0.00,WUHU21623XXSP,2013-08-26 14:01:00,
2013-08-26 09:06:00,76.3,67.0,29.38,West,270,1.6,2.2,73,0.00,,,0.00,WUHU21623XXSP,2013-08-26 14:06:00,
2013-08-26 09:11:00,76.6,67.3,29.38,SW,225,1.6,1.6,73,0.00,,,0.00,WUHU21623XXSP,2013-08-26 14:11:00,
2013-08-26 09:16:00,76.8,67.5,29.38,West,270,2.7,2.7,73,0.00,,,0.00,WUHU21623XXSP,2013-08-26 14:16:00,
2013-08-26 09:21:00,77.4,67.6,29.38,WSW,247,0.4,2.7,72,0.00,,,0.00,WUHU21623XXSP,2013-08-26 14:21:00,
2013-08-26 09:26:00,77.7,67.8,29.38,WSW,247,0.4,1.6,72,0.00,,,0.00,WUHU21623XXSP,2013-08-26 14:26:00,
2013-08-26 09:31:00,78.1,68.0,29.38,WSW,247,0.4,0.4,72,0.00,,,0.00,WUHU21623XXSP,2013-08-26 14:31:00,
2013-08-26 09:36:00,78.6,68.4,29.38,WSW,247,2.5,3.8,71,0.00,,,0.00,WUHU21623XXSP,2013-08-26 14:36:00,
2013-08-26 09:41:00,79.0,68.4,29.38,West,270,1.6,3.8,71,0.00,,,0.00,WUHU21623XXSP,2013-08-26 14:41:00,
2013-08-26 09:46:00,79.3,69.1,29.38,SSW,202,0.9,2.7,71,0.00,,,0.00,WUHU21623XXSP,2013-08-26 14:46:00,
2013-08-26 09:51:00,79.9,69.1,29.38,SW,225,2.0,2.7,70,0.00,,,0.00,WUHU21623XXSP,2013-08-26 14:51:00,
2013-08-26 09:56:00,80.4,69.3,29.38,WSW,247,3.6,4.3,69,0.00,,,0.00,WUHU21623XXSP,2013-08-26 14:56:00,
2013-08-26 10:01:00,80.8,69.7,29.38,West,270,2.0,4.3,69,0.00,,,0.00,WUHU21623XXSP,2013-08-26 15:01:00,
2013-08-26 10:06:00,81.3,69.7,29.38,WSW,247,2.2,6.7,68,0.00,,,0.00,WUHU21623XXSP,2013-08-26 15:06:00,
2013-08-26 10:11:00,81.7,70.1,29.38,SW,225,4.5,6.7,68,0.00,,,0.00,WUHU21623XXSP,2013-08-26 15:11:00,
2013-08-26 10:16:00,82.2,70.5,29.38,West,270,1.6,4.5,68,0.00,,,0.00,WUHU21623XXSP,2013-08-26 15:16:00,
2013-08-26 10:21:00,83.1,70.5,29.38,SW,225,6.0,6.0,66,0.00,,,0.00,WUHU21623XXSP,2013-08-26 15:21:00,
2013-08-26 10:26:00,83.5,70.9,29.38,SW,225,2.5,6.0,66,0.00,,,0.00,WUHU21623XXSP,2013-08-26 15:26:00,
2013-08-26 10:31:00,83.8,70.4,29.38,SW,225,2.5,6.0,65,0.00,,,0.00,WUHU21623XXSP,2013-08-26 15:31:00,
2013-08-26 10:36:00,84.4,71.3,29.38,West,270,4.0,4.0,65,0.00,,,0.00,WUHU21623XXSP,2013-08-26 15:36:00,
2013-08-26 10:41:00,84.9,71.0,29.38,West,270,2.2,4.0,64,0.00,,,0.00,WUHU21623XXSP,2013-08-26 15:41:00,
2013-08-26 10:46:00,85.3,71.5,29.38,West,270,2.2,4.0,64,0.00,,,0.00,WUHU21623XXSP,2013-08-26 15:46:00,
2013-08-26 10:51:00,85.6,71.6,29.38,West,270,2.9,2.9,63,0.00,,,0.00,WUHU21623XXSP,2013-08-26 15:51:00,
2013-08-26 10:56:00,85.6,71.6,29.38,West,270,2.7,2.9,63,0.00,,,0.00,WUHU21623XXSP,2013-08-26 15:56:00,
2013-08-26 11:01:00,85.8,71.7,29.38,SW,225,1.3,3.4,63,0.00,,,0.00,WUHU21623XXSP,2013-08-26 16:01:00,
2013-08-26 11:06:00,86.4,72.1,29.38,West,270,0.7,3.4,63,0.00,,,0.00,WUHU21623XXSP,2013-08-26 16:06:00,
2013-08-26 11:11:00,86.7,72.6,29.38,WSW,247,0.7,2.0,63,0.00,,,0.00,WUHU21623XXSP,2013-08-26 16:11:00,
2013-08-26 11:16:00,87.1,72.5,29.37,West,270,0.0,3.6,62,0.00,,,0.00,WUHU21623XXSP,2013-08-26 16:16:00,
2013-08-26 11:21:00,87.6,73.0,29.38,West,270,0.0,6.9,62,0.00,,,0.00,WUHU21623XXSP,2013-08-26 16:21:00,
2013-08-26 11:26:00,87.6,73.0,29.37,West,270,0.7,6.9,62,0.00,,,0.00,WUHU21623XXSP,2013-08-26 16:26:00,
2013-08-26 11:31:00,88.0,73.4,29.37,SW,225,4.7,4.7,62,0.00,,,0.00,WUHU21623XXSP,2013-08-26 16:31:00,
2013-08-26 11:36:00,88.3,73.3,29.37,WSW,247,0.0,4.7,61,0.00,,,0.00,WUHU21623XXSP,2013-08-26 16:36:00,
2013-08-26 11:41:00,88.5,73.0,29.37,WSW,247,5.4,5.4,60,0.00,,,0.00,WUHU21623XXSP,2013-08-26 16:41:00,
2013-08-26 11:46:00,88.9,73.3,29.37,SW,225,1.1,5.4,60,0.00,,,0.00,WUHU21623XXSP,2013-08-26 16:46:00,
2013-08-26 11:51:00,89.4,73.8,29.36,SW,225,3.6,3.6,60,0.00,,,0.00,WUHU21623XXSP,2013-08-26 16:51:00,
2013-08-26 11:56:00,89.8,73.6,29.36,SW,225,0.0,3.6,59,0.00,,,0.00,WUHU21623XXSP,2013-08-26 16:56:00,
2013-08-26 12:01:00,90.0,73.7,29.36,South,180,2.7,5.8,59,0.00,,,0.00,WUHU21623XXSP,2013-08-26 17:01:00,
2013-08-26 12:06:00,90.3,74.0,29.36,SW,225,1.6,5.8,59,0.00,,,0.00,WUHU21623XXSP,2013-08-26 17:06:00,
2013-08-26 12:11:00,90.3,73.5,29.36,West,270,0.0,3.4,58,0.00,,,0.00,WUHU21623XXSP,2013-08-26 17:11:00,
2013-08-26 12:16:00,90.5,73.5,29.36,West,270,1.1,3.4,59,0.00,,,0.00,WUHU21623XXSP,2013-08-26 17:16:00,
2013-08-26 12:21:00,90.7,73.8,29.35,WSW,247,0.7,3.4,58,0.00,,,0.00,WUHU21623XXSP,2013-08-26 17:21:00,
2013-08-26 12:26:00,91.0,74.2,29.35,West,270,4.0,4.0,58,0.00,,,0.00,WUHU21623XXSP,2013-08-26 17:26:00,
2013-08-26 12:31:00,91.4,74.5,29.34,West,270,2.2,4.0,58,0.00,,,0.00,WUHU21623XXSP,2013-08-26 17:31:00,
2013-08-26 12:36:00,91.9,75.0,29.34,SW,225,4.0,4.0,58,0.00,,,0.00,WUHU21623XXSP,2013-08-26 17:36:00,
2013-08-26 12:41:00,92.1,74.1,29.34,West,270,1.6,9.4,56,0.00,,,0.00,WUHU21623XXSP,2013-08-26 17:41:00,
2013-08-26 12:46:00,92.3,74.3,29.34,WSW,247,2.7,9.4,56,0.00,,,0.00,WUHU21623XXSP,2013-08-26 17:46:00,
2013-08-26 12:51:00,92.3,74.3,29.34,WNW,292,4.9,5.1,56,0.00,,,0.00,WUHU21623XXSP,2013-08-26 17:51:00,
2013-08-26 12:56:00,92.5,73.9,29.34,West,270,2.0,5.1,55,0.00,,,0.00,WUHU21623XXSP,2013-08-26 17:56:00,
2013-08-26 13:01:00,92.7,74.0,29.33,South,180,0.0,3.1,55,0.00,,,0.00,WUHU21623XXSP,2013-08-26 18:01:00,
2013-08-26 13:06:00,93.0,74.2,29.33,WSW,247,2.2,4.0,55,0.00,,,0.00,WUHU21623XXSP,2013-08-26 18:06:00,
2013-08-26 13:11:00,93.0,73.8,29.33,West,270,4.9,4.9,54,0.00,,,0.00,WUHU21623XXSP,2013-08-26 18:11:00,
2013-08-26 13:16:00,92.7,73.0,29.33,WSW,247,2.2,4.9,53,0.00,,,0.00,WUHU21623XXSP,2013-08-26 18:16:00,
2013-08-26 13:21:00,92.5,73.3,29.33,WSW,247,2.2,9.8,54,0.00,,,0.00,WUHU21623XXSP,2013-08-26 18:21:00,
2013-08-26 13:26:00,92.8,73.7,29.33,SW,225,3.4,9.8,54,0.00,,,0.00,WUHU21623XXSP,2013-08-26 18:26:00,
2013-08-26 13:31:00,93.0,72.7,29.33,West,270,5.6,6.9,52,0.00,,,0.00,WUHU21623XXSP,2013-08-26 18:31:00,
2013-08-26 13:36:00,93.0,72.7,29.32,SW,225,4.5,5.6,52,0.00,,,0.00,WUHU21623XXSP,2013-08-26 18:36:00,
2013-08-26 13:41:00,93.2,72.9,29.32,SW,225,1.6,5.4,52,0.00,,,0.00,WUHU21623XXSP,2013-08-26 18:41:00,
2013-08-26 13:46:00,93.4,73.1,29.32,West,270,2.2,2.2,52,0.00,,,0.00,WUHU21623XXSP,2013-08-26 18:46:00,
2013-08-26 13:51:00,93.6,73.2,29.32,SW,225,9.8,9.8,52,0.00,,,0.00,WUHU21623XXSP,2013-08-26 18:51:00,
2013-08-26 13:56:00,93.6,72.7,29.31,WSW,247,4.7,9.8,51,0.00,,,0.00,WUHU21623XXSP,2013-08-26 18:56:00,
2013-08-26 14:01:00,93.6,72.1,29.32,West,270,2.9,4.7,50,0.00,,,0.00,WUHU21623XXSP,2013-08-26 19:01:00,
2013-08-26 14:06:00,93.6,72.7,29.31,SW,225,3.6,7.2,51,0.00,,,0.00,WUHU21623XXSP,2013-08-26 19:06:00,
2013-08-26 14:11:00,93.6,72.7,29.31,West,270,2.9,7.2,51,0.00,,,0.00,WUHU21623XXSP,2013-08-26 19:11:00,
2013-08-26 14:16:00,93.6,72.7,29.31,WSW,247,2.0,4.0,51,0.00,,,0.00,WUHU21623XXSP,2013-08-26 19:16:00,
2013-08-26 14:21:00,93.7,72.3,29.31,NW,315,4.7,5.1,50,0.00,,,0.00,WUHU21623XXSP,2013-08-26 19:21:00,
2013-08-26 14:26:00,93.9,71.8,29.30,SW,225,2.9,5.1,49,0.00,,,0.00,WUHU21623XXSP,2013-08-26 19:26:00,
2013-08-26 14:31:00,93.9,72.5,29.30,West,270,0.0,4.0,50,0.00,,,0.00,WUHU21623XXSP,2013-08-26 19:31:00,
2013-08-26 14:36:00,94.1,72.7,29.30,WSW,247,4.3,4.3,50,0.00,,,0.00,WUHU21623XXSP,2013-08-26 19:36:00,
2013-08-26 14:41:00,94.1,72.7,29.30,WSW,247,5.1,5.1,50,0.00,,,0.00,WUHU21623XXSP,2013-08-26 19:41:00,
2013-08-26 14:46:00,94.3,72.9,29.30,WSW,247,0.0,5.1,50,0.00,,,0.00,WUHU21623XXSP,2013-08-26 19:46:00,
2013-08-26 14:51:00,94.3,72.9,29.30,SW,225,3.4,3.4,50,0.00,,,0.00,WUHU21623XXSP,2013-08-26 19:51:00,
2013-08-26 14:56:00,94.5,73.0,29.30,West,270,1.8,3.4,50,0.00,,,0.00,WUHU21623XXSP,2013-08-26 19:56:00,
2013-08-26 15:01:00,94.5,72.4,29.30,West,270,3.4,3.4,49,0.00,,,0.00,WUHU21623XXSP,2013-08-26 20:01:00,
2013-08-26 15:06:00,94.6,72.6,29.30,WSW,247,0.7,3.4,49,0.00,,,0.00,WUHU21623XXSP,2013-08-26 20:06:00,
2013-08-26 15:11:00,94.6,72.6,29.30,SSE,157,0.0,3.6,49,0.00,,,0.00,WUHU21623XXSP,2013-08-26 20:11:00,
2013-08-26 15:16:00,94.6,72.6,29.30,West,270,2.2,3.6,49,0.00,,,0.00,WUHU21623XXSP,2013-08-26 20:16:00,
2013-08-26 15:21:00,94.6,72.6,29.29,West,270,3.4,3.4,49,0.00,,,0.00,WUHU21623XXSP,2013-08-26 20:21:00,
2013-08-26 15:26:00,94.5,72.4,29.29,West,270,4.7,4.7,49,0.00,,,0.00,WUHU21623XXSP,2013-08-26 20:26:00,
2013-08-26 15:31:00,94.3,72.4,29.29,West,270,1.3,4.7,49,0.00,,,0.00,WUHU21623XXSP,2013-08-26 20:31:00,
2013-08-26 15:36:00,94.3,72.2,29.29,SW,225,0.7,1.3,49,0.00,,,0.00,WUHU21623XXSP,2013-08-26 20:36:00,
2013-08-26 15:41:00,94.3,72.2,29.29,SW,225,0.0,2.2,49,0.00,,,0.00,WUHU21623XXSP,2013-08-26 20:41:00,
2013-08-26 15:46:00,94.3,72.2,29.28,SW,225,0.0,2.2,50,0.00,,,0.00,WUHU21623XXSP,2013-08-26 20:46:00,
2013-08-26 15:51:00,94.3,72.2,29.28,East,90,0.0,0.0,49,0.00,,,0.00,WUHU21623XXSP,2013-08-26 20:51:00,
2013-08-26 15:56:00,94.5,72.2,29.28,East,90,0.0,0.0,49,0.00,,,0.00,WUHU21623XXSP,2013-08-26 20:56:00,
2013-08-26 16:01:00,94.6,72.6,29.28,East,90,0.0,0.0,49,0.00,,,0.00,WUHU21623XXSP,2013-08-26 21:01:00,
2013-08-26 16:06:00,95.2,72.9,29.28,West,270,2.9,2.9,48,0.00,,,0.00,WUHU21623XXSP,2013-08-26 21:06:00,
2013-08-26 16:11:00,95.5,73.4,29.27,WSW,247,1.1,2.9,49,0.00,,,0.00,WUHU21623XXSP,2013-08-26 21:11:00,
2013-08-26 16:16:00,95.7,73.4,29.28,SW,225,4.7,4.7,49,0.00,,,0.00,WUHU21623XXSP,2013-08-26 21:16:00,
2013-08-26 16:21:00,96.1,73.9,29.28,ESE,112,0.0,4.7,49,0.00,,,0.00,WUHU21623XXSP,2013-08-26 21:21:00,
2013-08-26 16:26:00,96.1,74.6,29.28,SE,135,4.9,4.9,50,0.00,,,0.00,WUHU21623XXSP,2013-08-26 21:26:00,
2013-08-26 16:31:00,96.4,74.9,29.28,ENE,67,0.2,4.9,50,0.00,,,0.00,WUHU21623XXSP,2013-08-26 21:31:00,
2013-08-26 16:36:00,96.4,74.9,29.28,SSE,157,6.9,6.9,50,0.00,,,0.00,WUHU21623XXSP,2013-08-26 21:36:00,
2013-08-26 16:41:00,96.1,74.6,29.27,West,270,0.0,6.9,50,0.00,,,0.00,WUHU21623XXSP,2013-08-26 21:41:00,
2013-08-26 16:46:00,95.7,74.4,29.28,West,270,0.0,0.4,50,0.00,,,0.00,WUHU21623XXSP,2013-08-26 21:46:00,
2013-08-26 16:51:00,95.2,74.3,29.27,ESE,112,0.9,0.9,51,0.00,,,0.00,WUHU21623XXSP,2013-08-26 21:51:00,
2013-08-26 16:56:00,95.2,74.3,29.27,West,270,0.0,0.9,51,0.00,,,0.00,WUHU21623XXSP,2013-08-26 21:56:00,
2013-08-26 17:01:00,95.2,74.3,29.28,ENE,67,7.4,7.4,51,0.00,,,0.00,WUHU21623XXSP,2013-08-26 22:01:00,
2013-08-26 17:06:00,95.4,74.4,29.27,WSW,247,3.6,7.4,51,0.00,,,0.00,WUHU21623XXSP,2013-08-26 22:06:00,
2013-08-26 17:11:00,95.5,74.6,29.27,SSW,202,2.2,3.6,51,0.00,,,0.00,WUHU21623XXSP,2013-08-26 22:11:00,
2013-08-26 17:16:00,95.5,74.6,29.27,West,270,0.7,3.6,51,0.00,,,0.00,WUHU21623XXSP,2013-08-26 22:16:00,
2013-08-26 17:21:00,95.5,74.6,29.27,WSW,247,0.0,0.7,51,0.00,,,0.00,WUHU21623XXSP,2013-08-26 22:21:00,
2013-08-26 17:26:00,95.5,74.6,29.27,South,180,0.0,8.3,51,0.00,,,0.00,WUHU21623XXSP,2013-08-26 22:26:00,
2013-08-26 17:31:00,95.7,74.8,29.27,WSW,247,1.3,8.3,51,0.00,,,0.00,WUHU21623XXSP,2013-08-26 22:31:00,
2013-08-26 17:36:00,95.7,75.3,29.27,SW,225,2.5,7.4,52,0.00,,,0.00,WUHU21623XXSP,2013-08-26 22:36:00,
2013-08-26 17:42:00,95.7,75.1,29.27,West,270,0.0,2.5,52,0.00,,,0.00,WUHU21623XXSP,2013-08-26 22:42:00,
2013-08-26 17:47:00,95.7,74.8,29.27,SW,225,0.7,1.1,51,0.00,,,0.00,WUHU21623XXSP,2013-08-26 22:47:00,
2013-08-26 17:52:00,95.4,74.6,29.26,SW,225,3.1,3.1,51,0.00,,,0.00,WUHU21623XXSP,2013-08-26 22:52:00,
2013-08-26 17:56:00,95.2,74.3,29.26,West,270,2.0,3.1,52,0.00,,,0.00,WUHU21623XXSP,2013-08-26 22:56:00,
2013-08-26 18:01:00,95.0,74.7,29.26,SW,225,1.6,2.0,52,0.00,,,0.00,WUHU21623XXSP,2013-08-26 23:01:00,
2013-08-26 18:06:00,94.8,74.5,29.26,WNW,292,0.0,1.6,52,0.00,,,0.00,WUHU21623XXSP,2013-08-26 23:06:00,
2013-08-26 18:11:00,94.8,74.5,29.26,West,270,1.3,1.3,52,0.00,,,0.00,WUHU21623XXSP,2013-08-26 23:11:00,
2013-08-26 18:16:00,94.6,74.3,29.26,WSW,247,0.7,1.3,52,0.00,,,0.00,WUHU21623XXSP,2013-08-26 23:16:00,
2013-08-26 18:21:00,94.3,74.5,29.25,WSW,247,0.7,3.1,53,0.00,,,0.00,WUHU21623XXSP,2013-08-26 23:21:00,
2013-08-26 18:26:00,94.1,74.3,29.25,SSW,202,0.0,5.4,53,0.00,,,0.00,WUHU21623XXSP,2013-08-26 23:26:00,
2013-08-26 18:31:00,93.7,74.0,29.25,WSW,247,1.3,6.5,53,0.00,,,0.00,WUHU21623XXSP,2013-08-26 23:31:00,
2013-08-26 18:36:00,93.4,74.2,29.25,SSW,202,2.0,6.5,54,0.00,,,0.00,WUHU21623XXSP,2013-08-26 23:36:00,
2013-08-26 18:41:00,93.2,74.0,29.25,West,270,0.0,2.0,54,0.00,,,0.00,WUHU21623XXSP,2013-08-26 23:41:00,
2013-08-26 18:46:00,93.0,73.8,29.25,SSW,202,0.9,4.5,54,0.00,,,0.00,WUHU21623XXSP,2013-08-26 23:46:00,
2013-08-26 18:51:00,92.5,73.3,29.25,South,180,0.0,4.5,54,0.00,,,0.00,WUHU21623XXSP,2013-08-26 23:51:00,
2013-08-26 18:56:00,92.5,73.9,29.25,NE,45,0.0,0.9,55,0.00,,,0.00,WUHU21623XXSP,2013-08-26 23:56:00,
2013-08-26 19:01:00,92.3,73.7,29.25,SSW,202,0.0,0.0,55,0.00,,,0.00,WUHU21623XXSP,2013-08-27 00:01:00,
2013-08-26 19:06:00,92.8,74.2,29.25,SSW,202,0.0,0.0,55,0.00,,,0.00,WUHU21623XXSP,2013-08-27 00:06:00,
2013-08-26 19:11:00,93.9,74.7,29.25,West,270,0.0,0.7,54,0.00,,,0.00,WUHU21623XXSP,2013-08-27 00:11:00,
2013-08-26 19:16:00,93.9,74.1,29.25,SSW,202,0.0,0.7,53,0.00,,,0.00,WUHU21623XXSP,2013-08-27 00:16:00,
2013-08-26 19:21:00,92.5,73.3,29.24,SSW,202,0.0,0.7,54,0.00,,,0.00,WUHU21623XXSP,2013-08-27 00:21:00,
2013-08-26 19:26:00,91.8,73.2,29.24,SSW,202,0.0,0.7,55,0.00,,,0.00,WUHU21623XXSP,2013-08-27 00:26:00,
2013-08-26 19:31:00,91.0,73.1,29.24,SE,135,0.0,0.0,56,0.00,,,0.00,WUHU21623XXSP,2013-08-27 00:31:00,
2013-08-26 19:36:00,90.3,72.4,29.24,SSE,157,0.7,0.7,57,0.00,,,0.00,WUHU21623XXSP,2013-08-27 00:36:00,
2013-08-26 19:41:00,89.4,72.5,29.24,SSE,157,0.0,0.7,57,0.00,,,0.00,WUHU21623XXSP,2013-08-27 00:41:00,
2013-08-26 19:46:00,89.1,72.4,29.23,South,180,0.7,0.7,58,0.00,,,0.00,WUHU21623XXSP,2013-08-27 00:46:00,
2013-08-26 19:51:00,88.5,72.4,29.24,South,180,0.0,0.7,59,0.00,,,0.00,WUHU21623XXSP,2013-08-27 00:51:00,
2013-08-26 19:56:00,88.0,71.9,29.23,SSE,157,0.0,0.0,59,0.00,,,0.00,WUHU21623XXSP,2013-08-27 00:56:00,
2013-08-26 20:01:00,87.6,71.6,29.23,SSE,157,0.0,0.0,59,0.00,,,0.00,WUHU21623XXSP,2013-08-27 01:01:00,
2013-08-26 20:06:00,87.3,71.8,29.23,SE,135,0.0,0.0,60,0.00,,,0.00,WUHU21623XXSP,2013-08-27 01:06:00,
2013-08-26 20:11:00,87.1,71.6,29.23,SE,135,2.0,2.0,60,0.00,,,0.00,WUHU21623XXSP,2013-08-27 01:11:00,
2013-08-26 20:16:00,86.7,71.7,29.23,SE,135,2.0,2.0,61,0.00,,,0.00,WUHU21623XXSP,2013-08-27 01:16:00,
2013-08-26 20:21:00,86.4,71.3,29.23,SSE,157,0.0,2.0,61,0.00,,,0.00,WUHU21623XXSP,2013-08-27 01:21:00,
2013-08-26 20:26:00,86.2,71.6,29.23,SE,135,0.0,0.0,62,0.00,,,0.00,WUHU21623XXSP,2013-08-27 01:26:00,
2013-08-26 20:31:00,85.8,71.3,29.23,South,180,0.0,0.0,62,0.00,,,0.00,WUHU21623XXSP,2013-08-27 01:31:00,
2013-08-26 20:36:00,85.6,71.6,29.23,SW,225,0.0,0.0,63,0.00,,,0.00,WUHU21623XXSP,2013-08-27 01:36:00,
2013-08-26 20:41:00,85.3,71.2,29.23,South,180,0.0,0.0,63,0.00,,,0.00,WUHU21623XXSP,2013-08-27 01:41:00,
2013-08-26 20:46:00,85.1,71.5,29.23,SE,135,0.0,0.0,64,0.00,,,0.00,WUHU21623XXSP,2013-08-27 01:46:00,
2013-08-26 20:51:00,84.9,71.4,29.24,SE,135,0.0,0.0,64,0.00,,,0.00,WUHU21623XXSP,2013-08-27 01:51:00,
2013-08-26 20:56:00,84.7,71.2,29.23,SE,135,0.0,0.0,64,0.00,,,0.00,WUHU21623XXSP,2013-08-27 01:56:00,
2013-08-26 21:01:00,84.4,71.3,29.23,SSE,157,0.7,0.7,65,0.00,,,0.00,WUHU21623XXSP,2013-08-27 02:01:00,
2013-08-26 21:06:00,84.0,71.0,29.23,SE,135,0.0,0.7,65,0.00,,,0.00,WUHU21623XXSP,2013-08-27 02:06:00,
2013-08-26 21:11:00,84.0,71.0,29.24,SE,135,0.0,0.0,65,0.00,,,0.00,WUHU21623XXSP,2013-08-27 02:11:00,
2013-08-26 21:16:00,83.8,70.8,29.24,SE,135,0.0,0.0,65,0.00,,,0.00,WUHU21623XXSP,2013-08-27 02:16:00,
2013-08-26 21:21:00,83.5,70.4,29.24,SSE,157,0.0,0.0,65,0.00,,,0.00,WUHU21623XXSP,2013-08-27 02:21:00,
2013-08-26 21:26:00,83.3,70.7,29.24,SSE,157,0.0,0.0,66,0.00,,,0.00,WUHU21623XXSP,2013-08-27 02:26:00,
2013-08-26 21:31:00,83.3,70.7,29.24,SSE,157,0.0,0.0,66,0.00,,,0.00,WUHU21623XXSP,2013-08-27 02:31:00,
2013-08-26 21:36:00,82.9,70.3,29.24,South,180,0.0,0.0,66,0.00,,,0.00,WUHU21623XXSP,2013-08-27 02:36:00,
2013-08-26 21:41:00,82.9,70.3,29.24,SSE,157,0.0,0.0,66,0.00,,,0.00,WUHU21623XXSP,2013-08-27 02:41:00,
2013-08-26 21:46:00,82.8,70.6,29.24,South,180,0.0,0.0,67,0.00,,,0.00,WUHU21623XXSP,2013-08-27 02:46:00,
2013-08-26 21:51:00,82.6,70.4,29.23,South,180,0.0,0.0,67,0.00,,,0.00,WUHU21623XXSP,2013-08-27 02:51:00,
2013-08-26 21:56:00,82.2,70.1,29.23,South,180,0.0,0.0,67,0.00,,,0.00,WUHU21623XXSP,2013-08-27 02:56:00,
2013-08-26 22:01:00,82.2,70.1,29.24,SE,135,0.0,0.0,67,0.00,,,0.00,WUHU21623XXSP,2013-08-27 03:01:00,
2013-08-26 22:06:00,82.0,70.4,29.24,SSE,157,0.0,0.0,68,0.00,,,0.00,WUHU21623XXSP,2013-08-27 03:06:00,
2013-08-26 22:11:00,81.9,70.2,29.24,SSE,157,0.0,0.0,68,0.00,,,0.00,WUHU21623XXSP,2013-08-27 03:11:00,
2013-08-26 22:16:00,81.7,70.1,29.24,SSE,157,0.0,0.0,68,0.00,,,0.00,WUHU21623XXSP,2013-08-27 03:16:00,
2013-08-26 22:21:00,81.5,69.9,29.24,SSE,157,0.0,0.0,68,0.00,,,0.00,WUHU21623XXSP,2013-08-27 03:21:00,
2013-08-26 22:26:00,81.3,69.7,29.24,SSE,157,0.0,0.0,68,0.00,,,0.00,WUHU21623XXSP,2013-08-27 03:26:00,
2013-08-26 22:31:00,81.3,69.7,29.24,SE,135,0.0,1.1,68,0.00,,,0.00,WUHU21623XXSP,2013-08-27 03:31:00,
2013-08-26 22:36:00,81.1,69.6,29.24,ESE,112,1.3,1.3,68,0.00,,,0.00,WUHU21623XXSP,2013-08-27 03:36:00,
2013-08-26 22:41:00,81.1,69.6,29.24,SSE,157,0.0,1.3,68,0.00,,,0.00,WUHU21623XXSP,2013-08-27 03:41:00,
2013-08-26 22:57:00,80.6,69.3,29.25,SSE,158,0.0,0.0,68,0.00,,,0.00,WUHU21623XXSP,2013-08-27 03:57:00,
2013-08-26 23:57:00,79.3,68.5,29.25,South,180,0.0,0.0,69,0.00,,,0.00,WUHU21623XXSP,2013-08-27 04:57:00,